This demonstration page uses our WeatherBlox Daily Observations layout. Learn more.

Left ArrowRight Arrow

Hourly Observations for December 24, 2020

Temp ( °F °C ) Dew Point ( °F °C ) Humidity (%) Winds ( mph kmh ) Pressure ( in mb ) Visibility ( mi km ) Precip ( " mm )
12:52 am 00:52 Mostly Clear 13 -10.6 3 -16.1 64 64 NNW 22 35 30.07 1018 10 16 0.00 0.00
1:52 am 01:52 Clear 12 -11.1 1 -17.2 61 61 NW 22 35 30.07 1018 10 16 0.00 0.00
2:52 am 02:52 Clear 10 -12.2 -1 -18.3 61 61 NNW 20 31 30.10 1019 10 16 0.00 0.00
3:52 am 03:52 Clear 9 -12.8 -3 -19.4 58 58 NW 17 28 30.10 1019 10 16 0.00 0.00
4:52 am 04:52 Clear 8 -13.3 -3 -19.4 60 60 NNW 12 19 30.11 1020 10 16 0.00 0.00
5:52 am 05:52 Clear 8 -13.3 -4 -20 57 57 NNW 15 24 30.11 1020 10 16 0.00 0.00
6:52 am 06:52 Clear 7 -13.9 -5 -20.6 57 57 NNW 14 22 30.13 1020 10 16 0.00 0.00
7:52 am 07:52 Sunny 6 -14.4 -6 -21.1 57 57 NNW 13 20 30.16 1021 10 16 0.00 0.00
8:52 am 08:52 Sunny 8 -13.3 -7 -21.7 50 50 NNW 10 17 30.18 1022 10 16 0.00 0.00
9:52 am 09:52 Sunny 9 -12.8 -6 -21.1 50 50 NNW 14 22 30.21 1023 10 16 0.00 0.00
10:52 am 10:52 Sunny 10 -12.2 -6 -21.1 48 48 NNW 16 26 30.20 1023 10 16 0.00 0.00
11:52 am 11:52 Sunny 13 -10.6 -6 -21.1 42 42 NNW 14 22 30.20 1023 10 16 0.00 0.00
12:52 pm 12:52 Sunny 15 -9.4 -6 -21.1 38 38 NNW 15 24 30.19 1023 10 16 0.00 0.00
1:52 pm 13:52 Sunny 16 -8.9 -4 -20 41 41 NW 20 31 30.20 1023 10 16 0.00 0.00
2:52 pm 14:52 Sunny 16 -8.9 -2 -18.9 45 45 NNW 18 30 30.22 1023 10 16 0.00 0.00
3:52 pm 15:52 Sunny 15 -9.4 -2 -18.9 46 46 NNW 17 28 30.22 1024 10 16 0.00 0.00
4:52 pm 16:52 Sunny 12 -11.1 -3 -19.4 51 51 NW 14 22 30.24 1024 10 16 0.00 0.00
5:52 pm 17:52 Clear 10 -12.2 -2 -18.9 58 58 NNW 9 15 30.24 1024 10 16 0.00 0.00
6:52 pm 18:52 Clear 9 -12.8 -2 -18.9 61 61 NNW 9 15 30.26 1025 10 16 0.00 0.00
7:52 pm 19:52 Clear 9 -12.8 -2 -18.9 61 61 NW 14 22 30.26 1025 10 16 0.00 0.00
8:52 pm 20:52 Clear 8 -13.3 -2 -18.9 63 63 NNW 10 17 30.27 1025 10 16 0.00 0.00
9:52 pm 21:52 Clear 6 -14.4 -2 -18.9 69 69 N 7 11 30.27 1025 10 16 0.00 0.00
10:52 pm 22:52 Clear 5 -15 -3 -19.4 69 69 N 6 9 30.27 1025 10 16 0.00 0.00
11:52 pm 23:52 Clear 4 -15.6 -2 -18.9 76 76 NW 5 7 30.27 1025 10 16 0.00 0.00

Powered by AerisWeather